Starlink 11129

operational
NORAD ID: 60038 Int'l Des: 2024-112 Owner: SPXS Country: US Constellation: starlink
LEOCIRCULAR

About Starlink 11129

Description loading...

Live Position

Loading 3D Globe...

Upcoming Passes

Altitude History

Altitude vs Time

uPlot chart will show altitude changes over time

Two-Line Element Set

1 60038U 24112A 25308.87942622 .00000624 00000-0 10016-4 0 9999
2 60038 53.1582 161.8707 0001701 90.6419 269.4794 15.69699855 81374
Epoch: Nov 4, 2025 • Age: 11 hours

Current Status

Altitude 359.6 km
Velocity 7.70 km/s
Sub-Earth Point 9.70°N, 159.66°E
Launch Date Jun 8, 2024
Age 1.4 years
Type internet

Technical Details

Classification Payload
Mass 960.00 kg
Dry Mass 910.00 kg
Total Mass 960.00 kg
Length 0.30 m
Diameter 4.10 m
Span 29.00 m
Shape Box + pan
Manufacturer SPXS
Bus Type Starlink V2MD
Phase Status In Orbit
Owner/State SPXS/US

Large Constellations

Loading constellations...